Regional Weather Roundup
Issued by NWS

Home | Current Version | Previous Version | Text Only | Print | Product List | Glossary On
Versions: 1 2 3 4 5 6 7 8 9 10 11 12 13 14 15 16 17 18 19 20 21 22 23 24 25 26 27
000
ASUS45 KCYS 061810
RWRWY

WYOMING REGIONAL WEATHER ROUNDUP
NATIONAL WEATHER SERVICE CHEYENNE WY
1200 PM MDT FRI MAY 06 2016

NOTE:  "FAIR" INDICATES FEW OR NO CLOUDS BELOW 12,000 FEET
WITH NO SIGNIFICANT WEATHER AND/OR OBSTRUCTIONS TO VISIBILITY.

WYZ001-061900-
YELLOWSTONE NATIONAL PARK

CITY           SKY/WX    TMP DP  RH WIND       PRES   REMARKS
LK YELLOWSTONE   N/A     52  33  48 VRB6      30.19S
6HR MIN TEMP:  34; 6HR MAX TEMP:  56;

W YELLOWSTONE  NOT AVBL

$$
WYZ002>013-054>058-071-098>099-061900-
NORTHERN WYOMING

CITY           SKY/WX    TMP DP  RH WIND       PRES   REMARKS
JACKSON        CLOUDY    59  36  41 N17G23    30.04
CODY           FAIR      57  39  51 N22G32    30.16S
GREYBULL       FAIR      74  39  28 E13       30.00F
6HR MIN TEMP:  60; 6HR MAX TEMP:  74;

WORLAND        PTSUNNY   66  41  40 NW21      30.03F HAZE
6HR MIN TEMP:  49; 6HR MAX TEMP:  68;

SHERIDAN       PTSUNNY   63  46  54 NW14      30.18S HAZE
6HR MIN TEMP:  55; 6HR MAX TEMP:  63;

BUFFALO        FAIR      60  41  49 N24G38    30.17R HAZE
6HR MIN TEMP:  55; 6HR MAX TEMP:  64;

GILLETTE       FAIR      64  46  52 N22G29    30.10R
6HR MIN TEMP:  46; 6HR MAX TEMP:  64; 6HR PCP: TRACE;

HULETT         FAIR      66  45  45 NE15G21   30.08S
NEWCASTLE      FAIR      77  37  24 NW20      29.96S

$$
WYZ014>020-022>026-101>103-061900-
CENTRAL WYOMING

CITY           SKY/WX    TMP DP  RH WIND       PRES   REMARKS
BIG PINEY      LGT RAIN  46  44  93 SW28G40   30.14R FOG
6HR MIN TEMP:  48; 6HR MAX TEMP:  60; 6HR PCP: TRACE;

PINEDALE       CLOUDY    59  32  36 E20G30    30.07R
DUBOIS         CLOUDY    57  34  41 E16G25    30.12R
LANDER         PTSUNNY   60  40  47 N5        30.08R
6HR MIN TEMP:  50; 6HR MAX TEMP:  60;

RIVERTON       CLOUDY    59  40  49 N17       30.06F
6HR MIN TEMP:  49; 6HR MAX TEMP:  59;

CASPER         FAIR      60  42  51 N24G30    30.08R
6HR MIN TEMP:  43; 6HR MAX TEMP:  64;

DOUGLAS        FAIR      72  46  39 N15       30.01S
6HR MIN TEMP:  43; 6HR MAX TEMP:  73;


$$
WYZ021-027>030-104>119-061900-
SOUTHERN WYOMING

CITY           SKY/WX    TMP DP  RH WIND       PRES   REMARKS
EVANSTON       FAIR      52  45  77 NE8       30.01F
6HR MIN TEMP:  45; 6HR MAX TEMP:  52; 6HR PCP:  0.12;

KEMMERER         N/A     46  45  93 N12       30.06F
FORT BRIDGER   CLEAR     54  52  94 E10       30.05F
ROCK SPRINGS   FAIR      49  47  93 N14       30.07F
6HR MIN TEMP:  47; 6HR MAX TEMP:  56; 6HR PCP:  0.04;

DIXON          FAIR      61  39  44 NE5       30.08F
RAWLINS        PTSUNNY   61  36  39 NE5       30.09R
6HR MIN TEMP:  46; 6HR MAX TEMP:  62;

SARATOGA       FAIR      63  32  31 W13G20    30.09R
LARAMIE        FAIR      71  29  21 NE7       30.05F
6HR MIN TEMP:  39; 6HR MAX TEMP:  71;

CHEYENNE       FAIR      75  35  23 S12       30.01S
6HR MIN TEMP:  44; 6HR MAX TEMP:  75;

TORRINGTON     FAIR      72  47  40 E7        29.94S
6HR MIN TEMP:  49; 6HR MAX TEMP:  73;

PINE BLUFFS    FAIR      79  36  21 E15G21    29.97F

$$




USA.gov is the U.S. government's official web portal to all federal, state and local government web resources and services.